Flag for U.S.A. Weather past 2 weeks in Greenville, South Carolina, U.S.A.

Now
37 °F

Clear.


Feels Like: 30 °F
Forecast: 40 / 65 °F
Wind: 9 mph from Northeast

Location: Greenville Downtown Airport


UV Index: 7 (High)

Visibility: 10 mi


Pressure: 30.44 "Hg

Humidity: 73%

Dew point: 29 °F

Location of GreenvilleLocation

Historic Weather in Greenville

°F

Greenville temperature yesterday

Maximum temperature yesterday: 59 °F (at 5:53 PM)
Minimum temperature yesterday: 33 °F (at 6:53 AM)
Average temperature yesterday: 46 °F

Past Weeks' High & Low Weather Summary

 TemperatureHumidityPressure
High84 °F (Apr 2, 2:53 PM)97% (Apr 7, 5:04 PM)30.44 "Hg (Apr 7, 5:04 PM)
Low33 °F (Apr 16, 6:53 AM)10% (Apr 2, 5:53 PM)29.64 "Hg (Apr 8, 3:53 AM)
Average61 °F53%30.01 "Hg
* Reported Apr 2 4:53 AM — Apr 17 4:53 AM, Greenville, Weather by CustomWeather, © 2014

Note: Actual official high and low records may vary slightly from our data, if they occured in-between our weather recording intervals... More about our weather records

Advertising

Historic Weather Conditions — Data for Previous 24 hours

 ConditionsComfort  
Time TempWeatherWind HumidityBarometerVisibility
4:53 AM
Apr 17
38 °FClear.8 mph73%30.44 "Hg10 mi
3:53 AM41 °FClear.7 mph62%30.43 "Hg10 mi
2:53 AM43 °FClear.7 mph58%30.43 "Hg10 mi
1:53 AM44 °FClear.8 mph55%30.42 "Hg10 mi
12:53 AM45 °FClear.7 mph53%30.41 "Hg10 mi
11:53 PM
Apr 16
46 °FClear.8 mph51%30.40 "Hg10 mi
10:53 PM47 °FClear.6 mph48%30.39 "Hg10 mi
9:53 PM50 °FClear.5 mph41%30.37 "Hg10 mi
8:53 PM52 °FSunny.7 mph37%30.34 "Hg10 mi
7:53 PM54 °FSunny.9 mph31%30.32 "Hg10 mi
6:53 PM57 °FSunny.8 mph26%30.31 "Hg10 mi
5:53 PM59 °FSunny.8 mph25%30.30 "Hg10 mi
4:53 PM58 °FSunny.10 mph25%30.30 "Hg10 mi
3:53 PM57 °FSunny.8 mph26%30.31 "Hg10 mi
2:53 PM55 °FSunny.6 mph28%30.32 "Hg10 mi
1:53 PM54 °FSunny.13 mph30%30.34 "Hg10 mi
12:53 PM52 °FSunny.12 mph30%30.35 "Hg10 mi
11:53 AM48 °FSunny.10 mph36%30.37 "Hg10 mi
10:53 AM44 °FSunny.12 mph40%30.37 "Hg10 mi
9:53 AM42 °FSunny.17 mph41%30.35 "Hg10 mi
8:53 AM39 °FSunny.14 mph46%30.34 "Hg10 mi
7:53 AM36 °FClear.9 mph59%30.31 "Hg10 mi
6:53 AM33 °FClear.7 mph70%30.27 "Hg10 mi
Weather by CustomWeather, © 2014

See weather overview